RRR4718 EGJB-EGWU

Flight info

Callsign RRR4718
Flight time 0h 33m
Altitude 23000
Route ORIST L982 ROXOG
Aircraft A400/H-SDE2E3FGHIJ4J5M1RWXY/LB1D1

Departure

Time 2026-05-05 11:07
Airport Guernsey Airport (EGJB)

Arrival

Time 2026-05-05 11:41
Airport RAF Northolt (EGWU)
Time Latitude Longitude Altitude Speed Heading
2026-05-05 10:49 49.43223 -2.59855 331 ft 0 kts 87°
2026-05-05 11:00 49.43223 -2.59862 333 ft 1 kts 87°
2026-05-05 11:00 49.43222 -2.59871 328 ft 1 kts 87°
2026-05-05 11:01 49.43222 -2.59880 327 ft 1 kts 76°
2026-05-05 11:01 49.43220 -2.59889 327 ft 1 kts 65°
2026-05-05 11:01 49.43218 -2.59897 330 ft 1 kts 65°
2026-05-05 11:01 49.43215 -2.59905 330 ft 1 kts 65°
2026-05-05 11:02 49.43214 -2.59911 329 ft 0 kts 65°
2026-05-05 11:04 49.43215 -2.59909 329 ft 0 kts 59°
2026-05-05 11:04 49.43222 -2.59902 330 ft 1 kts 22°
2026-05-05 11:04 49.43242 -2.59907 330 ft 5 kts 352°
2026-05-05 11:04 49.43289 -2.59921 327 ft 9 kts 348°
2026-05-05 11:05 49.43340 -2.59965 326 ft 11 kts 284°
2026-05-05 11:05 49.43338 -2.60139 313 ft 22 kts 267°
2026-05-05 11:05 49.43330 -2.60407 305 ft 27 kts 268°
2026-05-05 11:05 49.43335 -2.60686 306 ft 27 kts 281°
2026-05-05 11:06 49.43364 -2.60946 318 ft 21 kts 272°
2026-05-05 11:06 49.43359 -2.61163 322 ft 20 kts 266°
2026-05-05 11:06 49.43411 -2.61338 325 ft 17 kts 319°
2026-05-05 11:06 49.43466 -2.61330 323 ft 6 kts 62°
2026-05-05 11:07 49.43470 -2.61286 323 ft 0 kts 92°
2026-05-05 11:07 49.43470 -2.61282 323 ft 6 kts 92°
2026-05-05 11:07 49.43492 -2.60562 318 ft 132 kts 87°
2026-05-05 11:07 49.43572 -2.58887 959 ft 172 kts 82°
2026-05-05 11:08 49.43654 -2.56956 1946 ft 193 kts 84°
2026-05-05 11:08 49.43700 -2.54807 3082 ft 209 kts 84°
2026-05-05 11:08 49.43747 -2.52605 4630 ft 208 kts 83°
2026-05-05 11:08 49.44070 -2.50479 6357 ft 204 kts 63°
2026-05-05 11:09 49.44984 -2.48837 7975 ft 207 kts 34°
2026-05-05 11:09 49.46331 -2.47961 9575 ft 215 kts 17°
2026-05-05 11:09 49.47804 -2.47394 11090 ft 221 kts 13°
2026-05-05 11:09 49.49381 -2.46847 12256 ft 248 kts 13°
2026-05-05 11:10 49.51158 -2.46215 13124 ft 274 kts 14°
2026-05-05 11:10 49.53057 -2.45519 14210 ft 285 kts 14°
2026-05-05 11:10 49.55010 -2.44789 15351 ft 293 kts 14°
2026-05-05 11:10 49.57019 -2.44031 16448 ft 303 kts 15°
2026-05-05 11:11 49.59095 -2.43241 17567 ft 311 kts 15°
2026-05-05 11:11 49.61225 -2.42429 18664 ft 320 kts 15°
2026-05-05 11:11 49.63419 -2.41590 19642 ft 329 kts 16°
2026-05-05 11:11 49.65661 -2.40732 20694 ft 336 kts 16°
2026-05-05 11:12 49.67946 -2.39837 21747 ft 339 kts 18°
2026-05-05 11:12 49.70128 -2.38418 22526 ft 343 kts 33°
2026-05-05 11:12 49.71964 -2.35999 22905 ft 353 kts 48°
2026-05-05 11:12 49.73601 -2.33126 22964 ft 358 kts 52°
2026-05-05 11:13 49.75201 -2.30157 22966 ft 360 kts 52°
2026-05-05 11:13 49.76803 -2.27179 22967 ft 361 kts 52°
2026-05-05 11:13 49.78417 -2.24199 22966 ft 361 kts 52°
2026-05-05 11:13 49.80038 -2.21219 22962 ft 363 kts 51°
2026-05-05 11:14 49.81666 -2.18234 22968 ft 363 kts 52°
2026-05-05 11:14 49.83297 -2.15247 22971 ft 363 kts 51°
2026-05-05 11:14 49.85081 -2.12469 22968 ft 365 kts 41°
2026-05-05 11:14 49.87135 -2.10136 22969 ft 367 kts 36°
2026-05-05 11:15 49.89275 -2.07977 22967 ft 367 kts 34°
2026-05-05 11:15 49.91437 -2.05868 22969 ft 367 kts 34°
2026-05-05 11:15 49.93607 -2.03773 22979 ft 367 kts 33°
2026-05-05 11:15 49.95771 -2.01691 22969 ft 367 kts 34°
2026-05-05 11:16 49.97945 -1.99600 22970 ft 367 kts 33°
2026-05-05 11:16 50.00116 -1.97512 22970 ft 367 kts 34°
2026-05-05 11:16 50.02298 -1.95411 22970 ft 374 kts 33°
2026-05-05 11:16 50.04565 -1.93222 22965 ft 393 kts 33°
2026-05-05 11:17 50.06921 -1.90948 22966 ft 403 kts 33°
2026-05-05 11:17 50.09314 -1.88639 22970 ft 406 kts 33°
2026-05-05 11:17 50.11716 -1.86319 22971 ft 407 kts 33°
2026-05-05 11:17 50.14088 -1.84024 22975 ft 407 kts 33°
2026-05-05 11:18 50.16491 -1.81696 22972 ft 407 kts 33°
2026-05-05 11:18 50.18890 -1.79370 22964 ft 405 kts 33°
2026-05-05 11:18 50.21283 -1.77046 22973 ft 406 kts 33°
2026-05-05 11:18 50.23683 -1.74713 22968 ft 406 kts 33°
2026-05-05 11:19 50.26081 -1.72377 22974 ft 406 kts 33°
2026-05-05 11:19 50.28482 -1.70036 22974 ft 407 kts 33°
2026-05-05 11:19 50.30882 -1.67695 22970 ft 407 kts 33°
2026-05-05 11:19 50.33283 -1.65348 22972 ft 407 kts 33°
2026-05-05 11:20 50.35683 -1.63000 22968 ft 407 kts 33°
2026-05-05 11:20 50.38082 -1.60650 22969 ft 407 kts 33°
2026-05-05 11:20 50.40482 -1.58296 22972 ft 407 kts 33°
2026-05-05 11:20 50.42879 -1.55942 22970 ft 407 kts 33°
2026-05-05 11:21 50.45285 -1.53577 22969 ft 408 kts 33°
2026-05-05 11:21 50.47693 -1.51206 22981 ft 409 kts 33°
2026-05-05 11:21 50.50107 -1.48828 22746 ft 409 kts 33°
2026-05-05 11:21 50.52511 -1.46455 22469 ft 407 kts 33°
2026-05-05 11:22 50.54906 -1.44090 22196 ft 405 kts 33°
2026-05-05 11:22 50.57288 -1.41733 21935 ft 403 kts 33°
2026-05-05 11:22 50.59655 -1.39389 21676 ft 401 kts 33°
2026-05-05 11:22 50.62011 -1.37053 21412 ft 400 kts 33°
2026-05-05 11:23 50.64359 -1.34722 21108 ft 398 kts 33°
2026-05-05 11:23 50.66695 -1.32401 20657 ft 395 kts 33°
2026-05-05 11:23 50.68976 -1.30132 20134 ft 379 kts 33°
2026-05-05 11:23 50.71161 -1.27955 19660 ft 367 kts 33°
2026-05-05 11:24 50.73298 -1.25824 19179 ft 360 kts 33°
2026-05-05 11:24 50.75405 -1.23720 18699 ft 356 kts 33°
2026-05-05 11:24 50.77484 -1.21640 18220 ft 352 kts 33°
2026-05-05 11:24 50.79544 -1.19579 17704 ft 348 kts 33°
2026-05-05 11:25 50.81576 -1.17534 17242 ft 344 kts 34°
2026-05-05 11:25 50.83450 -1.15221 16887 ft 341 kts 40°
2026-05-05 11:25 50.85225 -1.12754 16554 ft 339 kts 42°
2026-05-05 11:25 50.86963 -1.10248 16220 ft 337 kts 43°
2026-05-05 11:26 50.88677 -1.07737 15871 ft 334 kts 43°
2026-05-05 11:26 50.90340 -1.05281 15502 ft 320 kts 43°
2026-05-05 11:26 50.91912 -1.02947 15116 ft 310 kts 43°
2026-05-05 11:26 50.93468 -1.00632 14731 ft 304 kts 43°
2026-05-05 11:27 50.95001 -0.98345 14344 ft 301 kts 43°
2026-05-05 11:27 50.96519 -0.96079 13963 ft 298 kts 43°
2026-05-05 11:27 50.98017 -0.93838 13546 ft 295 kts 43°
2026-05-05 11:27 50.99510 -0.91605 13128 ft 294 kts 43°
2026-05-05 11:28 51.00989 -0.89389 12715 ft 292 kts 43°
2026-05-05 11:28 51.02460 -0.87183 12298 ft 291 kts 43°
2026-05-05 11:28 51.03927 -0.84980 11892 ft 289 kts 43°
2026-05-05 11:28 51.05386 -0.82788 11493 ft 288 kts 43°
2026-05-05 11:29 51.06838 -0.80604 11096 ft 287 kts 43°
2026-05-05 11:29 51.08287 -0.78424 10702 ft 286 kts 43°
2026-05-05 11:29 51.09728 -0.76253 10316 ft 285 kts 43°
2026-05-05 11:29 51.11167 -0.74083 9931 ft 285 kts 43°
2026-05-05 11:30 51.12598 -0.71923 9512 ft 283 kts 43°
2026-05-05 11:30 51.14021 -0.69773 9090 ft 281 kts 43°
2026-05-05 11:30 51.15448 -0.67654 8676 ft 279 kts 40°
2026-05-05 11:30 51.17161 -0.66278 8263 ft 278 kts 14°
2026-05-05 11:31 51.19074 -0.66304 8001 ft 278 kts 348°
2026-05-05 11:31 51.20924 -0.67214 7964 ft 278 kts 341°
2026-05-05 11:31 51.22742 -0.68271 7963 ft 278 kts 341°
2026-05-05 11:31 51.24558 -0.69348 7967 ft 278 kts 341°
2026-05-05 11:32 51.26374 -0.70421 7964 ft 278 kts 340°
2026-05-05 11:32 51.28194 -0.71487 7967 ft 279 kts 341°
2026-05-05 11:32 51.30017 -0.72561 7821 ft 279 kts 340°
2026-05-05 11:32 51.31835 -0.73640 7567 ft 278 kts 341°
2026-05-05 11:33 51.33645 -0.74718 7304 ft 277 kts 341°
2026-05-05 11:33 51.35431 -0.75785 6909 ft 270 kts 341°
2026-05-05 11:33 51.37181 -0.76835 6431 ft 267 kts 341°
2026-05-05 11:33 51.38880 -0.77873 5924 ft 264 kts 341°
2026-05-05 11:34 51.40579 -0.78937 5406 ft 260 kts 341°
2026-05-05 11:34 51.42259 -0.79961 4904 ft 256 kts 346°
2026-05-05 11:34 51.43997 -0.80366 4376 ft 250 kts 358°
2026-05-05 11:34 51.45729 -0.80456 3878 ft 248 kts
2026-05-05 11:35 51.47441 -0.80497 3361 ft 245 kts
2026-05-05 11:35 51.49112 -0.80426 3049 ft 235 kts 11°
2026-05-05 11:35 51.50504 -0.79302 2996 ft 218 kts 43°
2026-05-05 11:35 51.51403 -0.77514 3001 ft 194 kts 54°
2026-05-05 11:36 51.52079 -0.75740 2993 ft 182 kts 64°
2026-05-05 11:36 51.52387 -0.73776 2922 ft 182 kts 78°
2026-05-05 11:36 51.52453 -0.71746 2799 ft 183 kts 89°
2026-05-05 11:36 51.52417 -0.70392 2678 ft 183 kts 90°
2026-05-05 11:37 51.52332 -0.68363 2485 ft 182 kts 90°
2026-05-05 11:37 51.52238 -0.66336 2279 ft 182 kts 91°
2026-05-05 11:37 51.52149 -0.64311 2079 ft 181 kts 90°
2026-05-05 11:37 51.52057 -0.62300 1869 ft 179 kts 91°
2026-05-05 11:38 51.51971 -0.60349 1670 ft 172 kts 90°
2026-05-05 11:38 51.51956 -0.58491 1468 ft 162 kts 82°
2026-05-05 11:38 51.52085 -0.56740 1304 ft 154 kts 78°
2026-05-05 11:38 51.52232 -0.55099 1184 ft 142 kts 76°
2026-05-05 11:39 51.52495 -0.53618 1054 ft 137 kts 68°
2026-05-05 11:39 51.52850 -0.52214 1001 ft 131 kts 64°
2026-05-05 11:39 51.53173 -0.50914 1020 ft 124 kts 66°
2026-05-05 11:39 51.53447 -0.49615 920 ft 120 kts 65°
2026-05-05 11:40 51.53738 -0.48343 745 ft 124 kts 66°
2026-05-05 11:40 51.54058 -0.47068 594 ft 122 kts 65°
2026-05-05 11:40 51.54379 -0.45789 476 ft 125 kts 65°
2026-05-05 11:40 51.54681 -0.44494 356 ft 122 kts 66°
2026-05-05 11:41 51.54987 -0.43213 179 ft 122 kts 67°
2026-05-05 11:41 51.55233 -0.42147 138 ft 64 kts 71°
2026-05-05 11:41 51.55294 -0.41866 133 ft 8 kts 70°
2026-05-05 11:41 51.55310 -0.41724 132 ft 18 kts 104°
2026-05-05 11:42 51.55245 -0.41522 131 ft 21 kts 119°
2026-05-05 11:42 51.55174 -0.41381 131 ft 15 kts 171°
2026-05-05 11:42 51.55135 -0.41392 127 ft 9 kts 194°
2026-05-05 11:42 51.55050 -0.41423 129 ft 16 kts 192°
2026-05-05 11:43 51.54989 -0.41493 126 ft 8 kts 262°
2026-05-05 11:43 51.54992 -0.41562 127 ft 0 kts 275°